Temp
80 80 78 76 78 71 76 73 77 76 75 76 76 76 76 73 73 74 72 72 72 72
79 79 77 76 77 75 75 77 78 76 76 76 77 76 74 72 72 73 73 73 72 72
79 78 78 77 77 73 76 79 77 76 75 75 75 74 72 69 71 71 70 72 70 72
78 78 79 76 76 74 75 77 77 78 77 76 75 72 70 71 71 67 64 65 64 68
79 77 76 73 74 78 76 78 79 79 78 74 72 72 72 69 71 67 65 62 65 66
78 75 74 73 73 79 79 79 80 80 79 75 72 70 70 69 69 69 69 63 62 62
75 75 75 73 74 77 80 79 79 80 75 76 75 71 70 70 68 69 70 69 66 64
77 76 77 73 74 74 76 76 80 75 75 77 76 73 70 72 72 69 69 67 66 68
81 80 75 75 74 73 75 75 76 74 75 76 76 53 55 59 72 71 68 67 66 66
81 80 79 80 78 78 72 73 74 75 75 74 70 53 53 53 69 70 69 68 66 69
82 81 78 79 78 77 74 74 74 74 74 73 68 49 48 50 72 71 70 71 71 70
84 81 77 76 75 74 72 72 71 72 71 73 68 48 47 55 73 69 68 69 71 70
85 82 76 76 75 75 74 73 73 71 71 63 68 48 46 59 69 65 69 68 65 53
84 82 80 78 76 75 75 73 73 71 71 72 68 60 48 49 68 69 69 71 71 68
MSLP
1003.91 1003.93 1004.32 1004.79 1004.81 1005.18 1005.52 1005.93 1005.80 1006.07 1006.24 1006.26 1006.30 1006.22 1006.29 1006.59 1006.54 1006.56 1006.68 1006.68 1006.76 1006.85
1003.94 1003.98 1004.57 1004.87 1004.99 1005.20 1005.65 1005.51 1005.74 1006.18 1006.15 1006.14 1006.00 1006.23 1006.43 1006.47 1006.55 1006.64 1006.53 1006.53 1006.79 1006.82
1003.93 1004.50 1004.56 1004.86 1004.87 1005.47 1005.51 1005.24 1005.68 1006.22 1006.32 1006.19 1006.16 1006.42 1006.61 1006.66 1006.77 1006.87 1007.15 1007.07 1007.24 1007.15
1003.78 1004.45 1004.45 1004.95 1005.06 1005.58 1005.78 1005.59 1005.73 1005.62 1005.87 1006.05 1006.30 1006.62 1006.87 1006.72 1006.95 1007.27 1007.56 1007.65 1007.83 1007.66
1003.82 1004.43 1004.68 1005.08 1005.32 1005.36 1005.59 1005.52 1005.41 1005.45 1005.60 1006.12 1006.64 1006.76 1006.73 1007.05 1007.02 1007.40 1007.47 1007.76 1008.13 1008.26
1003.87 1004.52 1004.78 1005.06 1005.41 1005.15 1005.32 1005.39 1005.36 1005.40 1005.49 1006.26 1006.93 1007.02 1007.06 1007.29 1007.29 1007.31 1007.53 1008.13 1008.40 1008.66
1004.11 1004.29 1004.77 1005.07 1005.42 1005.26 1005.16 1005.33 1005.34 1005.50 1006.09 1006.43 1006.80 1007.23 1007.28 1007.34 1007.60 1007.58 1007.61 1008.08 1008.56 1008.90
1003.92 1004.18 1004.55 1005.12 1005.45 1005.64 1005.55 1005.53 1005.26 1005.89 1006.23 1006.33 1006.86 1007.42 1007.56 1007.40 1007.31 1007.63 1007.79 1008.24 1008.77 1009.04
1003.34 1003.86 1004.62 1005.01 1005.43 1005.74 1005.74 1005.77 1005.91 1006.12 1006.51 1006.65 1007.15 1008.18 1008.23 1008.21 1007.72 1007.91 1008.28 1008.63 1009.19 1009.64
1003.30 1003.85 1004.33 1004.62 1004.98 1005.29 1005.73 1005.95 1006.00 1006.19 1006.68 1007.23 1008.26 1008.74 1008.69 1008.60 1008.34 1008.38 1008.58 1008.87 1009.52 1009.57
1003.02 1003.60 1004.21 1004.54 1004.92 1005.37 1005.88 1006.09 1006.34 1006.59 1007.04 1007.52 1008.69 1009.20 1009.14 1008.95 1008.57 1008.74 1009.00 1009.22 1009.40 1009.84
1002.73 1003.40 1004.29 1004.86 1005.31 1005.67 1006.22 1006.53 1006.77 1006.99 1007.34 1007.76 1008.87 1009.48 1009.46 1009.31 1008.82 1009.15 1009.47 1009.69 1010.02 1010.49
1002.50 1003.27 1004.05 1004.84 1005.45 1005.76 1006.22 1006.48 1006.83 1007.35 1007.72 1008.10 1009.02 1009.58 1009.73 1009.40 1009.32 1009.74 1009.87 1010.42 1010.90 1011.25
1002.56 1003.31 1004.06 1004.87 1005.45 1005.95 1006.26 1006.66 1007.04 1007.50 1007.79 1008.27 1009.05 1009.85 1009.98 1009.87 1009.75 1009.90 1010.10 1010.47 1011.10 1012.15
Wind_Speed
6 7 3 3 5 5 2 4 5 3 3 3 4 4 3 4 4 4 3 4 4 3
6 0 4 3 2 5 4 4 4 3 2 2 4 3 2 1 1 1 3 2 2 1
7 4 4 3 0 5 3 3 6 3 2 3 3 4 3 2 2 1 2 4 5 5
7 6 5 4 3 6 5 4 5 5 5 4 5 5 3 2 3 3 1 2 2 4
7 5 5 4 3 8 7 5 4 3 3 9 5 3 3 3 3 6 5 2 5 4
5 5 5 5 4 7 6 5 5 3 5 6 5 3 3 5 2 5 7 6 6 4
4 6 6 6 4 3 7 6 6 4 8 6 6 6 4 5 6 4 6 9 7 5
7 7 8 6 6 5 2 2 6 5 7 6 6 6 2 2 5 6 8 7 8 6
9 8 9 9 7 5 5 4 8 5 9 4 8 8 8 8 2 10 10 9 10 9
10 9 9 9 9 9 7 7 4 6 8 9 8 5 7 9 1 7 9 11 9 9
11 10 8 8 7 7 6 4 6 7 10 8 7 2 5 8 5 8 10 10 10 11
12 10 11 7 6 5 7 6 6 6 7 8 8 2 4 8 8 7 9 8 10 9
12 10 10 10 7 6 6 5 6 8 6 8 9 4 1 6 9 7 9 9 9 15
11 10 10 7 8 7 5 9 8 9 8 10 10 5 6 4 7 8 8 10 11 9
Wind_Direction
151 187 199 199 333 78 176 193 177 139 190 203 211 225 197 221 199 223 218 236 224 248
168 94 79 69 230 115 180 164 145 130 151 186 157 187 216 229 117 292 268 301 274 220
155 169 144 152 82 75 166 116 123 146 151 148 107 93 58 100 141 181 22 13 8 346
148 182 150 143 157 132 167 178 192 162 156 121 93 76 100 76 95 89 88 311 354 43
149 178 140 172 148 150 186 190 179 181 146 80 71 58 86 113 177 162 159 75 100 83
143 152 157 155 165 176 158 174 180 159 105 85 81 86 113 111 135 147 151 124 124 118
154 140 160 131 155 188 171 174 160 159 101 118 111 89 99 140 140 161 136 138 131 146
163 158 138 135 149 164 134 290 130 99 127 112 129 85 25 127 124 122 122 110 110 114
142 142 132 155 147 162 150 158 132 144 129 137 79 53 21 7 75 102 117 118 101 109
143 143 151 155 159 157 141 162 153 119 113 107 105 41 353 352 7 104 110 115 134 125
159 153 150 156 149 148 126 132 128 141 138 134 104 106 329 325 123 109 113 128 128 116
153 155 141 152 162 134 137 148 145 156 122 140 123 146 307 305 125 112 122 125 115 130
157 161 136 146 159 145 154 118 107 129 143 113 120 131 300 309 101 108 110 102 91 74
146 154 127 135 139 153 152 114 118 129 141 118 126 102 53 360 130 133 130 123 119 105